Location: Zagreb
(45.8000°N, 16.0000°E)
Time: 21:12:40
(UTC+01:00)

deb Explorer IX - Pass Details

Date: 08 October 2020
Orbit: 537 x 1106 km, 38.8° (Epoch: 30 October)

Event Time Altitude Azimuth Distance (km) Brightness Sun altitude
Rises 14:59:34 0° 238° (WSW) 3,709 ? 29.8°
Reaches altitude 10° 15:02:36 10° 230° (SW) 2,677 ? 29.5°
Maximum altitude 15:08:18 35° 167° (SSE) 1,366 ? 28.8°
Drops below altitude 10° 15:13:15 10° 103° (ESE) 2,318 ? 28.2°
Sets 15:15:42 0° 94° (E) 3,152 ? 27.9°
